{"data":{"norad_id":69479,"epoch":"2026-09-20T01:05:34.813248Z","epoch_age_seconds":64690,"freshness":"FRESH","line1":"1 69479U 26131B   26263.04554182  .00010925  00000+0  34061-3 0  9999","line2":"2 69479  97.2814 283.8540 0001001  83.1164 277.0193 15.33409931 16827","mean_motion":15.33409931,"eccentricity":0.0001001,"inclination_deg":97.2814,"raan_deg":283.854,"arg_perigee_deg":83.1164,"mean_anomaly_deg":277.0193,"bstar":0.00034061,"rev_number":1682,"period_min":93.908352286522,"perigee_km":464.96245430737,"apogee_km":466.3325799677,"semimajor_km":6843.7845171375,"source":"CELESTRAK","updated_at":"2026-09-20T09:00:44.205186Z"}}